                    Epoch = 2022 Mar.  2.0 TT
     T = 2022 Feb. 20.66426 TT        Peri. =  46.98806
     e = 0.2277366                    Node  = 199.81128 2000.0
     q = 2.4496763 AU                 Incl. =  14.32870
       a =  3.1720735 AU   n = 0.17445733   P =   5.65 years
                    Epoch = 2027 Nov. 11.0 TT
     T = 2027 Nov. 14.76910 TT        Peri. =  50.40485
     e = 0.2209317                    Node  = 198.73356 2000.0
     q = 2.4838098 AU                 Incl. =  14.19743
       a =  3.1881796 AU   n = 0.17313700   P =   5.69 years
                    Epoch = 2033 July 22.0 TT
     T = 2033 July 29.27836 TT        Peri. =  50.89357
     e = 0.2211751                    Node  = 198.68620 2000.0
     q = 2.4824343 AU                 Incl. =  14.19692
       a =  3.1874099 AU   n = 0.17319972   P =   5.69 years
The residuals for the recovery observations of component B above are +140" in
R.A. and +18" in Decl. from the prediction in NK 3988, with a corresponding
correction of Delta(T) = -0.09 day.  The following linked orbital elements for
component B by Nakano are from 76 observations spanning 2004-2022 (mean
residual 0".5), with non-gravitational parameters A_1 = -5.98 +/- 0.56 and A_2
= -0.9406 +/- 0.0217.  He notes that A_1 has notable uncertainty.  Nakano
included the 2004 observations, which fit well and suggest that the splitting
occurred at or after that apparition.  The April 2010 observations were
included as component B (see discussion on residuals for component A, above).
There are no close approaches to major planets.
                    Epoch = 2005 Mar. 11.0 TT
     T = 2005 Mar. 15.74615 TT        Peri. =  45.57086
     e = 0.2359512                    Node  = 200.37484 2000.0
     q = 2.4154351 AU                 Incl. =  14.35742
       a =  3.1613623 AU   n = 0.17534471   P =   5.62 years
                    Epoch = 2010 Nov. 20.0 TT
     T = 2010 Nov.  1.01424 TT        Peri. =  45.85305
     e = 0.2348116                    Node  = 200.33128 2000.0
     q = 2.4196650 AU                 Incl. =  14.35451
       a =  3.1621822 AU   n = 0.17527652   P =   5.62 years
                    Epoch = 2016 June 21.0 TT
     T = 2016 June 24.11589 TT        Peri. =  46.57644
     e = 0.2282189                    Node  = 199.85585 2000.0
     q = 2.4480697 AU                 Incl. =  14.33130
       a =  3.1719740 AU   n = 0.17446553   P =   5.65 years
                    Epoch = 2022 Mar.  2.0 TT
     T = 2022 Feb. 20.47538 TT        Peri. =  46.98588
     e = 0.2276851                    Node  = 199.81101 2000.0
     q = 2.4497382 AU                 Incl. =  14.32988
       a =  3.1719421 AU   n = 0.17446816   P =   5.65 years
                    Epoch = 2027 Nov. 11.0 TT
     T = 2027 Nov. 14.44795 TT        Peri. =  50.41359
     e = 0.2208816                    Node  = 198.73330 2000.0
     q = 2.4838097 AU                 Incl. =  14.19849
       a =  3.1879745 AU   n = 0.17315371   P =   5.69 years
                    Epoch = 2033 July 22.0 TT
     T = 2033 July 28.73636 TT        Peri. =  50.90973
     e = 0.2211160                    Node  = 198.68597 2000.0
     q = 2.4824190 AU                 Incl. =  14.19799
       a =  3.1871485 AU   n = 0.17322103   P =   5.69 years
The photometric power-law parameters for component A from the 2016 apparition
(H = 16.0, 2.5n = 10) represent the 2020-2022 observations well and suggest
that the comet is currently near mag 25.
NOTE: These 'Central Bureau Electronic Telegrams' are sometimes
      superseded by text appearing later in the printed IAU Circulars.
                         (C) Copyright 2024 CBAT
2024 March 13                    (CBET 5367)              Daniel W. E. Green
    
    
More information about the Iaude
mailing list